Aérodrome :
LOGIN :

S'inscrire | Disclaimer

   EN    FR    IT 

 










Légende :    VFR   VFR Marginal   IFR   IFR Intensif   IFR Très Intensif
Visi : 
Plafond : 
>= 8 km
>= 3000ft
5 à 8 km
1000 à 3000 ft
1500m à 5 km
500 à 1000 ft
800 à 1500m
200 à 500 ft
< 800m
< 200 ft
Symboles :   Orages  Brouillard  Fortes neiges  Fortes précipitations  Vent > 20 kt
SIGMETs :   Divers  Orages  Givrage  Turbulence  Onde Orograph.  Cendres Volcan.







- Altitude de l'aérodrome : 202 ft
- Code IATA : LGW
- Voir les cartes d'approche


EGKK - London Gatwick

DERNIER METAR :
  • 240420Z 24002KT 9999 MIFG NSC 12/12 Q1016

METARs EXPIRÉS :
  • 240350Z 23002KT 8000 NSC 13/12 Q1016
  • 240320Z 19002KT 8000 NSC 13/13 Q1016
  • 240250Z 22003KT 9000 NSC 13/13 Q1016
  • 240220Z 21003KT CAVOK 13/13 Q1016
  • 240150Z 23003KT CAVOK 13/13 Q1016

TAF TAF EGKK
Valide du 24 à 00h jusqu'au 25 à 06h UTC


232258Z 2400/2506 26008KT 9999 SCT025
PROB30 2403/2407 9000
PROB30 2502/2506 3000 BR
Pas de NOTAMs connus pour ce terrain.



MET'MAP, la Météo Aéronautique d'un coup d'oeil ! - Copyright ORBIFLY Décembre 2007 - Disclaimer

ORBIFLY MET'MAP TEAM :

Programmation & Développement : Alexandra Zaïnal
Conception & Développement : Baudouin d'Aumeries
Co-Programmation & Développement : Marc-Olivier Méhu
Soutien technique & logistique : Manuel Goepfert

Contact : metmap@orbifly.com




SOURCES & CREDITS :

   NOAA